Location: Newark
(7.0858°N, 171.3717°E)
Time: 21:01:59
(UTC+00:00)

Tiros 1 - Pass Details

Date: 26 November 2020
Orbit: 630 x 663 km, 48.4° (Epoch: 18 January)

Event Time Altitude Azimuth Distance (km) Brightness Sun altitude
Rises 14:30:54 0° 288° (WNW) 2,915 - -55.9°
Reaches altitude 10° 14:34:23 10° 260° (W) 2,003 - -55.1°
Maximum altitude 14:36:33 13° 232° (SW) 1,796 - -54.6°
Drops below altitude 10° 14:38:44 10° 203° (SSW) 2,000 - -54.1°
Sets 14:42:13 0° 176° (S) 2,907 - -53.4°
